Location: Boca do Mato
(22.9085°S, 43.2930°W)
Time: 02:41:48
(UTC+00:00)

ATLAS 5 CENTAUR R/B - Visible Passes

Search period start: 23 October 2020 00:00
Search period end: 02 November 2020 00:00
Orbit: 527 x 1131 km, 63.4° (Epoch: 14 October)

Date Brightness Start Highest point End Pass type
(mag) Time Alt. Az. Time Alt. Az. Time Alt. Az.
23 Oct 3.8 05:28:51 36° NE 05:29:46 38° ENE 05:36:18 10° SE visible
23 Oct 3.5 07:10:25 20° WNW 07:14:32 34° WSW 07:20:52 10° S visible
24 Oct 3.9 05:10:54 35° ENE 05:10:54 35° ENE 05:16:59 10° SE visible
24 Oct 3.4 06:52:29 28° W 06:55:17 37° WSW 07:01:44 10° S visible
25 Oct 4.2 04:52:51 30° E 04:52:51 30° E 04:57:40 10° SE visible
25 Oct 3.3 06:34:25 35° W 06:36:04 39° WSW 06:42:37 10° S visible
26 Oct 4.5 04:34:42 25° ESE 04:34:42 25° ESE 04:38:20 10° SE visible
26 Oct 3.2 06:16:16 41° WSW 06:16:50 42° WSW 06:23:28 10° S visible
27 Oct 4.8 04:16:28 20° ESE 04:16:28 20° ESE 04:18:59 10° SE visible
27 Oct 3.3 05:58:01 44° SW 05:58:01 44° SW 06:04:20 10° S visible
28 Oct 5.0 03:58:08 15° ESE 03:58:08 15° ESE 03:59:38 10° SE visible
28 Oct 3.4 05:39:41 43° SSW 05:39:41 43° SSW 05:45:11 10° SSE visible
29 Oct 5.3 03:39:44 12° ESE 03:39:44 12° ESE 03:40:16 10° ESE visible
29 Oct 3.6 05:21:17 40° SSW 05:21:17 40° SSW 05:26:02 10° SSE visible
30 Oct 3.9 05:02:49 35° S 05:02:49 35° S 05:06:52 10° SSE visible
31 Oct 4.2 04:44:17 30° S 04:44:17 30° S 04:47:42 10° SSE visible
01 Nov 4.4 04:25:41 26° S 04:25:41 26° S 04:28:32 10° SSE visible
